CAPE
3005 3114 3134 3434 3622 3513 3385 3374 3355 3095 2906 3132 3595 3933 3880 3854 3717 3777 3798 3650 3460 2957 2933 3021 2653 2742 2883 2165 845 597 337 957 653 15 0 0 0 0 0 0 0 0 0
2682 2910 2986 3176 3293 3578 3338 3233 3243 3335 3857 4094 3951 3742 3578 3819 3965 4028 3994 4027 3752 3611 3367 3310 3237 3400 3056 2560 1070 1006 762 947 408 36 0 0 0 0 0 0 0 0 0
2674 2539 2248 2468 2408 2711 2320 2383 2177 2617 3484 3774 3793 3618 4176 4221 4051 4158 4254 4091 4013 3875 3745 3555 3399 3166 3174 2552 1439 1136 1057 919 323 14 0 0 0 0 0 0 0 0 0
90 71 225 259 234 249 227 401 482 740 908 858 962 810 2317 3979 3640 3242 4262 4299 4269 4183 4037 3774 3269 3125 2900 2467 1699 1155 749 925 720 147 0 0 0 0 0 0 0 0 0
377 625 809 832 688 262 281 446 728 157 375 267 359 638 1037 1320 1020 616 1370 2420 3207 3506 3685 3727 3461 3233 3106 2916 2069 1112 663 865 802 583 44 0 0 0 0 0 0 0 0
16 9 15 0 44 102 48 1 62 529 185 377 421 374 526 1106 36 161 168 420 705 696 1394 2438 3205 3735 3226 2308 2045 1662 1322 920 766 616 9 0 0 0 0 0 0 0 0
0 0 0 0 0 0 109 72 54 662 633 712 752 701 481 477 630 30 0 7 23 9 273 877 1663 2820 3174 1627 860 1217 1280 1035 743 630 412 1 0 0 0 0 0 0 0
1 6 35 6 0 0 0 0 20 16 0 0 1 274 487 398 314 363 122 0 0 147 155 138 641 1095 2118 1990 1017 658 444 187 45 77 116 69 0 0 0 0 0 0 0
0 0 0 0 0 0 0 0 0 0 0 0 0 2 1 270 89 0 0 0 11 65 0 49 10 293 1662 1198 1693 1019 651 510 173 96 0 20 0 0 0 0 0 0 0
0 0 0 0 0 0 0 0 0 0 0 0 0 0 0 0 1 1 0 0 0 0 0 0 0 457 168 893 1383 1352 909 657 0 0 0 0 0 0 0 0 0 0 0
0 0 0 0 0 0 0 0 0 0 0 0 0 0 0 0 0 0 0 0 0 0 9 16 0 246 73 19 3 220 1418 514 0 0 0 0 0 0 0 0 0 0 0
0 0 0 0 0 0 0 0 0 0 0 0 0 0 0 0 0 0 0 0 0 0 2 32 47 199 92 0 2 0 0 306 0 0 0 0 0 0 0 0 0 0 6
0 0 0 0 0 0 0 0 0 0 0 0 0 0 0 0 0 0 0 0 0 0 12 52 20 23 0 1 2 1 1 2 79 0 0 0 0 0 0 0 0 0 17
0 1 1 0 0 0 0 0 0 0 0 0 0 0 0 0 0 0 0 0 0 0 54 84 11 42 1 1 0 1 0 16 236 29 0 0 0 0 0 0 0 0 1
0 0 0 0 0 0 0 0 0 0 0 0 0 0 0 0 0 0 0 0 0 0 0 0 0 22 111 9 0 0 1 52 192 374 116 2 0 0 0 0 0 0 0
0 0 0 0 0 0 0 0 0 0 0 0 0 0 0 0 0 0 0 0 0 0 0 0 3 16 73 41 12 0 23 262 412 382 461 152 76 1 0 0 0 0 0
0 0 0 0 0 0 0 0 0 0 0 0 0 0 0 0 0 0 0 1 0 1 0 0 0 0 10 142 80 17 0 21 277 402 488 410 303 230 23 0 0 3 0
6 2 1 4 3 0 0 0 0 0 0 0 0 0 0 0 0 0 0 1 0 0 0 0 0 8 0 7 205 414 217 144 172 567 630 552 215 339 157 13 0 4 1
3 1 1 2 1 0 0 1 0 0 0 0 0 0 0 0 0 0 1 0 0 0 0 2 0 0 9 50 174 372 510 505 467 466 609 625 525 316 333 82 0 1 6
0 3 15 5 3 5 4 2 0 0 0 0 0 0 0 0 0 0 0 0 0 0 0 0 0 15 7 124 195 263 356 602 657 552 573 528 547 289 341 141 78 0 1
0 0 24 16 14 11 16 5 20 31 25 12 4 3 10 0 1 0 0 0 0 0 0 0 8 0 0 64 73 388 442 532 624 662 629 630 491 323 183 243 135 60 3
0 0 1 12 14 7 9 18 23 28 18 10 2 0 4 0 5 15 20 21 19 3 1 5 0 0 0 3 155 176 178 230 410 504 624 491 195 76 207 293 87 75 22
0 0 4 20 18 8 4 7 12 1 6 8 10 11 6 4 3 7 12 14 12 14 2 0 0 1 44 32 23 178 192 233 159 281 461 276 109 100 103 83 40 41 4
0 0 3 8 6 2 2 16 2 1 2 5 5 3 4 6 5 8 8 5 15 9 2 7 0 4 3 7 1 4 20 38 164 402 424 297 226 89 85 21 126 14 44
0 0 1 10 2 0 5 13 7 1 2 5 5 6 6 5 8 9 9 15 19 4 0 0 0 0 0 2 1 0 1 0 1 0 0 339 481 387 275 23 101 126 65
0 0 0 0 0 0 2 0 1 0 4 5 5 5 8 8 7 7 9 9 3 1 1 2 2 0 0 0 0 0 1 1 0 1 0 0 166 308 336 257 264 145 90
CIN
-162 -150 -120 -89 -71 -59 -55 -49 -45 -56 -71 -65 -59 -52 -51 -49 -47 -39 -37 -37 -35 -68 -86 -57 -60 -49 -34 -71 -160 -181 -293 -127 -132 -335 0 0 0 0 0 0 0 0 0
-180 -157 -109 -86 -67 -57 -49 -42 -44 -43 -37 -39 -51 -68 -76 -63 -49 -35 -26 -14 -26 -29 -46 -35 -35 -30 -33 -41 -167 -116 -150 -156 -236 -412 0 0 0 0 0 0 0 0 0
-111 -188 -202 -141 -128 -81 -122 -121 -162 -119 -40 -28 -35 -57 -36 -39 -31 -24 -22 -23 -19 -18 -21 -23 -25 -34 -37 -54 -122 -137 -126 -116 -246 -424 0 0 0 0 0 0 0 0 0
-814 -797 -708 -651 -653 -576 -565 -452 -422 -291 -244 -255 -236 -399 -222 -41 -61 -108 -25 -19 -16 -15 -17 -24 -43 -41 -45 -52 -105 -159 -200 -128 -128 -238 0 0 0 0 0 0 0 0 0
-710 -588 -471 -449 -503 -631 -594 -527 -398 -520 -430 -311 -183 -173 -311 -309 -412 -501 -314 -166 -76 -39 -32 -27 -34 -44 -35 -39 -95 -224 -267 -163 -129 -125 -261 0 0 0 0 0 0 0 0
-845 -854 -806 0 -762 -715 -835 -874 -689 -390 -415 -302 -122 -237 -319 -290 -697 -684 -598 -487 -415 -451 -287 -122 -55 -22 -45 -99 -89 -152 -179 -199 -153 -137 -308 0 0 0 0 0 0 0 0
0 0 0 0 0 0 -663 -672 -221 -271 -275 -280 -257 -236 -320 -332 -298 -736 0 -492 -432 -414 -473 -351 -206 -60 -34 -201 -360 -212 -174 -176 -170 -137 -138 -64 0 0 0 0 0 0 0
-386 -364 -312 -316 0 0 0 0 -632 -654 0 0 -290 -351 -299 -346 -383 -395 -488 0 -122 -458 -446 -504 -317 -217 -102 -136 -285 -336 -354 -393 -282 -122 -284 -217 0 0 0 0 0 0 0
0 0 0 0 0 0 0 0 0 0 0 0 0 -507 -514 -414 -383 -45 0 0 -205 -500 0 -500 -571 -353 -124 -228 -118 -232 -277 -295 -347 -335 0 -38 0 0 0 0 0 0 0
0 0 0 0 0 0 0 0 0 0 0 0 0 0 0 0 -182 -219 0 0 0 0 0 0 -22 -252 -460 -206 -108 -129 -184 -216 0 0 0 0 0 0 0 0 0 0 0
0 0 0 0 0 0 0 0 0 0 0 0 0 0 0 0 0 0 0 0 0 0 -513 -401 0 -280 -485 -612 -197 -343 -49 -194 0 0 0 0 0 0 0 0 0 0 0
0 0 0 0 0 0 0 0 0 0 0 0 0 0 0 0 0 0 0 0 0 0 -180 -388 -362 -243 -302 0 0 0 0 -67 0 0 0 0 0 0 0 0 0 0 -39
0 0 0 0 0 0 0 0 0 0 0 0 0 0 0 0 0 0 0 0 0 0 -113 -246 -133 -99 -1 0 0 0 0 -99 -217 0 0 0 0 0 0 0 0 0 -48
0 -5 -5 0 0 0 0 0 0 0 0 0 0 0 0 0 0 0 0 0 0 0 -153 -101 -66 -167 -1 0 0 0 0 -280 -119 -196 0 0 0 0 0 0 0 0 -8
0 0 0 0 0 0 0 0 0 0 0 0 0 0 0 0 0 0 0 0 0 0 0 0 0 -81 -83 -79 0 0 0 -135 -44 -29 -87 -64 0 0 0 0 0 0 0
0 0 0 0 0 0 0 0 0 0 0 0 0 0 0 0 0 -12 0 0 0 0 0 -27 -82 -84 -134 -68 -117 0 -138 -74 -28 -10 -4 -53 -78 -6 0 0 0 0 0
0 0 0 0 0 -2 0 0 0 0 0 0 0 0 0 0 0 0 0 0 0 0 0 0 0 0 -84 -48 -113 -133 0 -46 -27 -5 -1 -9 -41 -26 -131 0 0 -64 0
-5 -4 -3 -2 -1 0 0 -1 0 0 0 0 0 0 0 0 0 0 0 0 0 0 0 0 0 -143 0 -73 -49 -50 -73 -91 -31 -1 0 0 -32 -34 -38 -77 0 -82 -55
-9 -8 -7 -3 -3 0 0 0 -1 0 -1 -2 0 0 0 0 0 0 0 0 0 0 0 -41 0 0 -103 -118 -61 -58 -34 -25 -8 -2 -1 0 -3 -13 -20 -58 -46 -46 -75
0 -4 -8 -6 -3 0 -20 -1 0 0 0 0 0 0 0 0 0 0 0 0 0 0 0 0 0 -186 -28 -102 -64 -94 -71 -44 -14 -2 -1 -1 0 -25 -25 -37 -65 -1 -84
0 0 -15 -16 -2 -1 -6 -3 -2 0 -1 0 -1 -2 -2 0 -2 -1 0 0 0 0 -1 -1 -53 0 0 -166 -123 -49 -83 -59 -49 -13 0 0 0 -5 -70 -31 -36 -87 -81
0 0 -11 -24 -19 -5 -1 -11 -10 -3 -4 -2 -2 -1 -4 -1 -3 -2 -2 -3 -6 -15 -20 -23 0 0 0 -81 -44 -76 -71 -65 -70 -54 -19 -3 -17 -61 -11 -7 -57 -65 -106
0 0 -27 -27 -24 -10 -8 -7 -9 -10 -13 -10 -5 -1 -2 -1 -2 -4 -1 -1 -2 -3 -9 0 0 -31 -86 -119 -108 -62 -31 -44 -73 -58 -38 -22 -64 -47 -33 -37 -24 -24 -93
0 0 -43 -53 -46 -36 -15 -3 -11 -14 -4 -1 -8 -1 0 -1 -1 0 -1 -2 -2 -2 -2 -37 -3 -5 -10 -16 -24 -24 -200 -182 -55 -8 -12 -16 -20 -84 -75 -74 -7 -4 -121
0 0 -44 -77 -69 0 -46 -18 -30 -3 -1 0 0 0 0 0 0 0 0 -1 -4 0 0 0 0 0 0 0 0 0 0 0 0 0 0 -5 -6 -6 -20 -96 -75 -8 -101
0 0 0 0 0 0 -18 0 -1 0 0 0 0 0 0 0 0 0 0 0 0 0 0 0 0 0 0 0 0 0 0 0 0 0 0 0 -22 -5 -11 -24 -3 -15 -107
Wind_Speed
11 8 8 6 6 5 5 4 5 4 4 5 4 4 4 4 4 4 4 5 6 6 4 5 6 4 4 3 3 0 3 1 2 1 2 2 1 1 2 3 4 4 2
10 10 8 7 7 5 5 5 5 5 5 5 5 5 6 5 5 5 5 5 5 6 6 5 6 3 5 5 4 8 7 3 4 5 3 2 2 3 2 3 4 3 3
9 14 13 12 11 9 10 10 11 10 8 7 6 6 6 6 6 7 7 6 6 6 6 6 7 6 4 3 5 7 3 3 3 4 5 3 2 2 2 2 3 2 2
17 16 16 14 13 13 11 10 10 10 10 12 11 8 7 6 3 5 5 6 5 5 6 6 6 6 6 5 5 7 6 4 4 3 3 4 3 3 2 3 3 2 2
15 14 10 9 11 10 9 7 6 10 11 6 13 13 6 5 5 5 6 5 5 4 5 6 7 8 10 8 5 8 7 6 4 4 3 3 4 3 6 4 4 2 2
12 10 8 6 6 5 7 5 6 3 4 6 8 9 11 5 3 3 5 5 6 5 6 6 7 9 8 9 12 15 14 9 8 5 4 6 8 5 4 5 4 3 2
7 4 3 5 5 2 5 4 5 4 2 3 7 7 8 8 9 2 3 2 4 6 7 6 7 6 7 6 6 7 10 11 7 9 6 6 7 7 7 5 5 4 4
4 2 1 3 4 4 6 6 4 6 7 9 10 11 9 8 13 10 7 5 5 7 8 8 7 8 7 8 7 7 7 6 7 5 6 6 7 10 9 6 7 5 2
5 3 2 4 5 6 6 6 5 6 5 6 9 9 8 8 11 14 12 7 6 8 7 7 7 6 7 10 9 9 7 7 7 10 9 7 10 12 10 7 4 5 2
6 5 5 5 6 5 5 6 4 4 6 6 7 9 10 12 12 14 11 4 9 6 6 7 5 2 4 8 9 10 9 9 7 5 3 2 8 11 14 8 6 5 3
5 5 5 5 5 6 5 2 4 6 6 7 8 8 8 9 12 17 18 8 9 8 5 5 4 4 5 6 3 6 9 6 7 6 5 4 4 7 5 5 6 5 4
2 1 2 4 4 4 6 6 6 6 7 8 9 9 8 10 12 13 18 17 14 7 7 3 4 6 9 6 4 8 7 8 6 6 6 5 5 5 5 5 6 5 4
3 4 4 5 5 6 5 6 5 6 6 8 7 7 8 7 4 2 7 6 7 4 5 5 5 8 9 7 8 10 6 3 6 7 9 8 8 8 5 4 4 6 4
3 4 5 6 7 6 4 4 4 3 4 6 6 7 6 7 8 6 4 2 1 3 5 4 5 7 6 6 7 4 4 5 6 7 6 7 6 5 5 5 4 4 3
6 5 6 4 6 7 5 4 4 5 5 7 6 5 5 7 8 10 8 8 7 7 6 3 4 4 5 4 5 7 5 5 6 6 6 8 8 8 8 6 5 3 4
4 4 4 4 5 7 7 7 9 10 13 15 14 9 8 13 14 15 11 10 11 7 2 4 4 5 7 6 6 7 6 7 8 6 7 6 9 10 10 8 8 7 6
5 5 5 6 6 5 6 7 5 7 12 12 15 15 12 13 16 15 9 5 8 2 3 5 6 7 7 7 7 8 7 7 8 7 8 8 7 9 12 10 11 10 6
6 7 5 6 7 7 7 8 8 9 8 8 9 8 10 12 9 7 3 3 3 5 7 10 8 6 7 8 8 8 7 7 7 8 9 8 7 7 10 12 13 12 10
6 6 6 6 7 9 8 8 8 9 8 7 6 8 8 11 7 2 7 3 4 5 6 7 7 6 7 9 8 7 8 8 7 8 9 9 9 9 10 12 13 15 13
5 10 7 7 7 8 7 7 7 8 8 7 7 7 7 7 6 7 6 5 6 8 8 8 8 5 5 7 10 6 7 7 8 8 10 10 8 7 10 12 13 13 12
4 4 9 5 6 8 8 7 7 7 8 8 8 8 11 6 9 9 9 8 7 7 8 9 8 6 6 6 6 5 5 7 8 9 9 8 9 8 5 7 10 12 13
5 4 4 5 6 7 7 7 7 7 7 8 9 9 12 6 8 9 9 8 8 8 7 7 7 5 8 7 7 3 9 6 5 7 7 7 7 5 7 7 7 9 12
5 3 4 4 5 7 7 7 4 4 6 9 9 9 9 9 8 9 9 9 9 9 8 6 8 8 6 5 5 4 5 5 5 5 6 6 7 7 8 3 6 12 12
5 4 4 4 4 6 7 7 4 6 7 8 9 9 9 9 10 11 10 10 8 10 8 3 2 4 5 5 4 3 4 5 4 6 9 6 9 9 9 11 12 13 13
4 2 4 4 5 6 6 4 4 5 8 7 8 8 8 9 9 9 10 9 7 4 5 4 3 6 8 9 8 12 12 14 12 11 9 8 8 11 10 10 11 10 12
5 4 4 4 5 5 4 3 5 8 7 7 7 8 8 8 9 9 8 8 6 5 5 5 4 5 8 9 11 12 12 16 14 13 10 10 8 7 9 13 17 13 13
Wind_Direction
171 165 164 176 181 198 219 239 247 260 273 279 268 257 257 255 260 257 255 258 263 277 281 252 261 248 223 161 125 12 319 324 171 258 117 184 103 134 58 155 170 160 113
164 160 166 173 178 188 211 246 272 275 283 272 270 264 255 247 239 239 254 260 256 267 275 278 270 262 229 209 118 137 245 199 154 156 178 201 184 217 197 138 198 159 157
81 74 64 57 55 45 42 30 19 2 329 307 297 287 267 241 236 235 228 234 245 252 261 267 269 275 268 186 172 181 211 218 154 143 181 170 184 189 228 211 198 187 156
76 74 70 68 64 58 43 28 21 2 354 346 339 340 325 282 1 346 273 240 234 244 254 252 257 254 254 249 181 183 182 207 187 183 166 161 162 207 160 183 241 213 186
78 78 72 72 76 70 49 33 28 33 348 355 342 309 347 31 16 20 1 20 22 353 320 285 261 249 239 233 176 188 187 195 198 188 172 159 173 174 194 189 206 180 217
49 60 37 62 105 114 102 10 353 117 297 17 303 309 321 358 311 12 30 353 346 337 308 302 299 293 273 264 222 189 188 189 204 184 182 193 199 190 174 165 161 139 237
88 78 39 301 300 322 84 176 304 312 26 301 299 293 302 307 289 290 274 317 315 296 286 286 295 285 261 223 212 183 198 205 203 189 184 191 187 191 167 164 169 153 200
95 99 287 269 269 282 31 11 318 341 347 329 313 302 297 293 298 298 305 301 285 274 277 273 268 280 273 207 192 202 215 212 195 183 186 211 190 181 171 164 160 158 71
117 108 31 11 1 4 354 340 333 320 315 293 278 278 287 299 315 304 305 289 265 263 267 268 271 290 310 254 203 201 211 223 208 207 191 215 170 156 149 126 142 128 187
61 50 27 7 350 337 308 295 287 285 281 277 293 294 292 294 287 281 278 269 281 270 267 269 270 247 338 355 233 202 199 216 178 168 170 181 179 166 158 159 153 155 158
56 38 12 342 326 303 302 299 268 270 274 274 286 283 269 257 269 276 278 274 260 263 241 256 270 308 351 357 303 275 229 183 187 176 166 162 164 170 174 167 161 153 176
62 30 275 272 273 283 280 280 279 279 282 284 279 277 272 273 270 282 293 307 296 269 259 238 256 261 298 311 302 254 302 241 168 169 171 175 173 189 194 191 180 184 215
2 328 321 313 294 278 274 276 279 271 273 285 293 310 314 309 308 41 80 46 23 326 325 306 287 291 299 310 279 266 222 256 190 186 193 189 193 193 176 188 191 181 212
300 297 295 284 275 283 277 262 262 291 306 295 289 301 300 311 321 310 298 321 253 223 269 270 249 247 271 279 308 264 226 226 243 204 213 190 181 163 181 180 168 156 155
4 336 320 326 320 304 299 283 273 268 246 283 281 265 270 289 277 275 287 295 289 259 260 274 265 240 235 253 280 281 251 224 228 237 219 190 190 185 193 184 180 158 163
359 334 318 318 324 304 293 289 271 265 272 276 261 238 273 261 263 273 281 261 282 260 180 232 257 256 246 228 230 247 262 246 229 227 228 223 201 190 189 187 190 186 192
334 320 318 304 295 289 310 297 300 289 267 264 273 277 266 251 282 284 293 265 262 307 258 249 230 240 252 238 233 230 233 244 248 222 231 221 226 200 181 184 192 189 190
319 305 314 314 313 308 306 304 300 299 298 302 276 268 289 292 282 298 138 160 270 208 249 256 251 227 237 243 237 234 234 230 239 238 230 223 216 207 194 193 189 188 187
308 297 294 307 302 293 292 293 299 294 295 301 306 303 294 288 299 312 177 220 246 257 260 255 241 243 253 260 248 236 227 227 225 238 235 230 219 207 204 198 192 188 181
294 292 281 297 297 291 284 286 286 294 296 294 297 294 302 318 310 297 270 243 234 241 248 255 255 242 249 249 254 237 240 219 223 231 239 233 222 216 202 207 191 188 188
276 272 285 289 288 309 290 283 294 298 301 299 297 296 289 287 291 285 283 276 268 271 262 258 257 256 243 265 282 271 243 233 219 226 238 228 226 215 215 218 205 194 193
277 261 278 289 295 297 302 301 293 304 317 316 310 307 300 295 298 299 295 286 278 266 269 261 240 252 274 282 265 325 307 269 229 219 220 221 209 198 248 221 207 205 183
269 269 271 280 290 288 297 297 288 293 308 305 302 303 306 303 302 296 293 289 281 276 268 249 229 247 233 214 212 220 235 255 260 247 213 203 223 215 236 228 256 222 189
258 255 262 274 289 299 293 281 276 283 293 300 306 302 303 306 303 298 296 293 289 283 273 267 340 322 305 303 286 228 268 271 258 266 259 215 211 208 195 195 203 223 186
276 279 285 280 284 283 285 285 293 301 303 300 302 302 300 299 299 307 304 308 320 355 352 354 338 318 309 308 302 303 293 278 266 258 274 247 218 212 209 192 198 222 190
244 233 247 264 268 265 281 321 312 319 311 309 309 312 312 312 311 308 317 326 329 336 345 339 338 322 301 297 298 299 286 278 279 264 251 252 240 225 211 210 207 208 177